Time,TemperatureF,DewpointF,PressureIn,WindDirection,WindDirectionDegrees,WindSpeedMPH,WindSpeedGustMPH,Humidity,HourlyPrecipIn,Conditions,Clouds,dailyrainin,SoftwareType,DateUTC
2013-01-24 00:04:00,2.6,-4.4,30.38,NNE,21,2.3,6.9,72,0.00,CLR,,0.00,WeatherDisplay:10.37,2013-01-24 06:04:00,
2013-01-24 00:09:00,2.2,-4.8,30.38,NNE,20,6.9,12.7,72,0.00,CLR,,0.00,WeatherDisplay:10.37,2013-01-24 06:09:00,
2013-01-24 00:14:00,2.2,-4.8,30.39,NNE,17,5.1,9.2,72,0.00,CLR,,0.00,WeatherDisplay:10.37,2013-01-24 06:14:00,
2013-01-24 00:19:00,2.1,-4.9,30.39,NW,322,4.2,9.2,72,0.00,CLR,,0.00,WeatherDisplay:10.37,2013-01-24 06:19:00,
2013-01-24 00:24:00,1.9,-5.1,30.40,NNW,343,4.8,9.6,72,0.00,CLR,,0.00,WeatherDisplay:10.37,2013-01-24 06:24:00,
2013-01-24 00:29:00,2.0,-5.0,30.40,NE,38,2.3,3.5,72,0.00,CLR,,0.00,WeatherDisplay:10.37,2013-01-24 06:29:00,
2013-01-24 00:34:00,1.9,-5.1,30.40,NNW,340,4.5,8.1,72,0.00,CLR,,0.00,WeatherDisplay:10.37,2013-01-24 06:34:00,
2013-01-24 00:39:00,1.9,-5.1,30.41,NW,325,2.3,4.6,72,0.00,CLR,,0.00,WeatherDisplay:10.37,2013-01-24 06:39:00,
2013-01-24 00:44:00,1.7,-5.2,30.41,WNW,297,1.9,3.5,72,0.00,CLR,,0.00,WeatherDisplay:10.37,2013-01-24 06:44:00,
2013-01-24 00:49:00,1.5,-5.2,30.41,North,359,4.8,8.1,73,0.00,CLR,,0.00,WeatherDisplay:10.37,2013-01-24 06:49:00,
2013-01-24 00:54:00,1.3,-5.3,30.42,North,7,5.6,9.2,73,0.00,CLR,,0.00,WeatherDisplay:10.37,2013-01-24 06:54:00,
2013-01-24 00:59:00,1.1,-5.3,30.42,NNW,340,5.2,8.1,74,0.00,CLR,,0.00,WeatherDisplay:10.37,2013-01-24 06:59:00,
2013-01-24 01:04:00,1.1,-5.3,30.42,North,352,4.4,6.9,74,0.00,CLR,,0.00,WeatherDisplay:10.37,2013-01-24 07:04:00,
2013-01-24 01:09:00,1.0,-5.4,30.42,SW,232,3.8,6.9,74,0.00,CLR,,0.00,WeatherDisplay:10.37,2013-01-24 07:09:00,
2013-01-24 01:14:00,0.8,-5.5,30.43,WNW,294,2.7,6.9,74,0.00,CLR,,0.00,WeatherDisplay:10.37,2013-01-24 07:14:00,
2013-01-24 01:19:00,0.8,-5.5,30.44,NNW,333,3.6,9.2,74,0.00,CLR,,0.00,WeatherDisplay:10.37,2013-01-24 07:19:00,
2013-01-24 01:24:00,0.6,-5.7,30.44,North,350,4.5,5.8,74,0.00,CLR,,0.00,WeatherDisplay:10.37,2013-01-24 07:24:00,
2013-01-24 01:29:00,0.5,-5.6,30.44,NW,318,5.3,6.9,75,0.00,CLR,,0.00,WeatherDisplay:10.37,2013-01-24 07:29:00,
2013-01-24 01:34:00,0.4,-5.7,30.44,NNW,331,3.3,5.8,75,0.00,CLR,,0.00,WeatherDisplay:10.37,2013-01-24 07:34:00,
2013-01-24 01:39:00,0.1,-5.9,30.44,NNE,19,7.1,11.5,75,0.00,CLR,,0.00,WeatherDisplay:10.37,2013-01-24 07:39:00,
2013-01-24 01:44:00,0.0,-5.8,30.44,NNW,336,4.2,6.9,76,0.00,CLR,,0.00,WeatherDisplay:10.37,2013-01-24 07:44:00,
2013-01-24 01:49:00,-0.2,-6.0,30.44,NNW,333,5.5,9.2,76,0.00,CLR,,0.00,WeatherDisplay:10.37,2013-01-24 07:49:00,
2013-01-24 01:54:00,-0.1,-5.9,30.45,NNW,346,5.8,9.2,76,0.00,CLR,,0.00,WeatherDisplay:10.37,2013-01-24 07:54:00,
2013-01-24 01:59:00,-0.2,-6.0,30.46,NNW,338,3.9,9.6,76,0.00,CLR,,0.00,WeatherDisplay:10.37,2013-01-24 07:59:00,
2013-01-24 02:04:00,-0.5,-6.3,30.45,North,9,6.1,9.2,76,0.00,CLR,,0.00,WeatherDisplay:10.37,2013-01-24 08:04:00,
2013-01-24 02:09:00,-0.6,-6.4,30.45,NNE,17,3.0,4.6,76,0.00,CLR,,0.00,WeatherDisplay:10.37,2013-01-24 08:09:00,
2013-01-24 02:14:00,-0.6,-6.1,30.45,NNW,342,4.7,9.2,77,0.00,CLR,,0.00,WeatherDisplay:10.37,2013-01-24 08:14:00,
2013-01-24 02:19:00,-0.7,-6.2,30.45,North,7,2.7,4.9,77,0.00,CLR,,0.00,WeatherDisplay:10.37,2013-01-24 08:19:00,
2013-01-24 02:24:00,-0.9,-6.1,30.46,North,349,5.9,9.2,78,0.00,CLR,,0.00,WeatherDisplay:10.37,2013-01-24 08:24:00,
2013-01-24 02:29:00,-1.0,-6.2,30.46,North,7,2.9,8.1,78,0.00,CLR,,0.00,WeatherDisplay:10.37,2013-01-24 08:29:00,
2013-01-24 02:34:00,-0.9,-6.1,30.46,North,2,3.4,4.6,78,0.00,CLR,,0.00,WeatherDisplay:10.37,2013-01-24 08:34:00,
2013-01-24 02:39:00,-1.2,-6.4,30.47,WNW,298,4.0,8.1,78,0.00,CLR,,0.00,WeatherDisplay:10.37,2013-01-24 08:39:00,
2013-01-24 02:44:00,-1.3,-6.5,30.47,North,359,4.9,9.2,78,0.00,CLR,,0.00,WeatherDisplay:10.37,2013-01-24 08:44:00,
2013-01-24 02:49:00,-1.3,-6.5,30.47,North,352,3.7,5.8,78,0.00,CLR,,0.00,WeatherDisplay:10.37,2013-01-24 08:49:00,
2013-01-24 02:54:00,-1.2,-6.4,30.47,NNW,331,2.9,7.0,78,0.00,CLR,,0.00,WeatherDisplay:10.37,2013-01-24 08:54:00,
2013-01-24 02:59:00,-1.4,-6.3,30.47,North,2,4.0,9.2,79,0.00,CLR,,0.00,WeatherDisplay:10.37,2013-01-24 08:59:00,
2013-01-24 03:04:00,-1.4,-6.3,30.47,NW,314,6.3,9.2,79,0.00,CLR,,0.00,WeatherDisplay:10.37,2013-01-24 09:04:00,
2013-01-24 03:09:00,-1.3,-6.2,30.48,NNW,342,3.2,4.6,79,0.00,CLR,,0.00,WeatherDisplay:10.37,2013-01-24 09:09:00,
2013-01-24 03:14:00,-1.4,-6.3,30.48,WNW,300,5.0,9.2,79,0.00,CLR,,0.00,WeatherDisplay:10.37,2013-01-24 09:14:00,
2013-01-24 03:19:00,-1.5,-6.4,30.48,North,350,5.9,9.2,79,0.00,CLR,,0.00,WeatherDisplay:10.37,2013-01-24 09:19:00,
2013-01-24 03:24:00,-1.5,-6.4,30.48,North,349,4.2,6.9,79,0.00,CLR,,0.00,WeatherDisplay:10.37,2013-01-24 09:24:00,
2013-01-24 03:29:00,-1.4,-6.3,30.48,NNE,20,4.1,6.3,79,0.00,CLR,,0.00,WeatherDisplay:10.37,2013-01-24 09:29:00,
2013-01-24 03:34:00,-1.5,-6.4,30.49,NW,322,4.5,9.7,79,0.00,CLR,,0.00,WeatherDisplay:10.37,2013-01-24 09:34:00,
2013-01-24 03:39:00,-1.5,-6.2,30.49,NW,324,5.8,9.2,80,0.00,CLR,,0.00,WeatherDisplay:10.37,2013-01-24 09:39:00,
2013-01-24 03:44:00,-1.4,-6.1,30.50,NW,318,4.7,8.1,80,0.00,CLR,,0.00,WeatherDisplay:10.37,2013-01-24 09:44:00,
2013-01-24 03:49:00,-1.4,-6.1,30.50,WSW,250,3.4,5.8,80,0.00,CLR,,0.00,WeatherDisplay:10.37,2013-01-24 09:49:00,
2013-01-24 03:54:00,-1.4,-6.1,30.50,WNW,283,5.0,9.2,80,0.00,CLR,,0.00,WeatherDisplay:10.37,2013-01-24 09:54:00,
2013-01-24 03:59:00,-1.7,-6.4,30.50,NNW,335,4.7,9.2,80,0.00,CLR,,0.00,WeatherDisplay:10.37,2013-01-24 09:59:00,
2013-01-24 04:04:00,-1.6,-6.3,30.50,North,9,6.2,10.4,80,0.00,CLR,,0.00,WeatherDisplay:10.37,2013-01-24 10:04:00,
2013-01-24 04:09:00,-1.7,-6.4,30.50,NNW,342,3.6,8.1,80,0.00,CLR,,0.00,WeatherDisplay:10.37,2013-01-24 10:09:00,
2013-01-24 04:14:00,-1.7,-6.4,30.50,North,9,5.9,9.2,80,0.00,CLR,,0.00,WeatherDisplay:10.37,2013-01-24 10:14:00,
2013-01-24 04:19:00,-1.6,-6.3,30.50,North,352,4.4,9.2,80,0.00,CLR,,0.00,WeatherDisplay:10.37,2013-01-24 10:19:00,
2013-01-24 04:24:00,-1.7,-6.4,30.51,NW,316,5.4,9.2,80,0.00,CLR,,0.00,WeatherDisplay:10.37,2013-01-24 10:24:00,
2013-01-24 04:29:00,-1.7,-6.1,30.50,NNW,348,6.5,11.5,81,0.00,CLR,,0.00,WeatherDisplay:10.37,2013-01-24 10:29:00,
2013-01-24 04:34:00,-1.7,-6.1,30.50,North,355,6.0,10.4,81,0.00,CLR,,0.00,WeatherDisplay:10.37,2013-01-24 10:34:00,
2013-01-24 04:39:00,-1.8,-6.5,30.51,North,352,6.0,10.4,80,0.00,CLR,,0.00,WeatherDisplay:10.37,2013-01-24 10:39:00,
2013-01-24 04:44:00,-1.6,-6.3,30.51,NNW,336,4.9,8.1,80,0.00,CLR,,0.00,WeatherDisplay:10.37,2013-01-24 10:44:00,
2013-01-24 04:49:00,-1.7,-6.4,30.52,NNW,340,5.3,8.1,80,0.00,CLR,,0.00,WeatherDisplay:10.37,2013-01-24 10:49:00,
2013-01-24 04:54:00,-1.7,-6.4,30.52,NW,322,5.0,8.1,80,0.00,CLR,,0.00,WeatherDisplay:10.37,2013-01-24 10:54:00,
2013-01-24 04:59:00,-1.6,-6.3,30.52,NNW,333,5.5,9.2,80,0.00,CLR,,0.00,WeatherDisplay:10.37,2013-01-24 10:59:00,
2013-01-24 05:04:00,-1.7,-6.4,30.52,NNE,27,4.0,9.2,80,0.00,CLR,,0.00,WeatherDisplay:10.37,2013-01-24 11:04:00,
2013-01-24 05:09:00,-1.8,-6.5,30.52,NNW,332,3.7,5.8,80,0.00,CLR,,0.00,WeatherDisplay:10.37,2013-01-24 11:09:00,
2013-01-24 05:14:00,-1.6,-6.0,30.53,North,356,6.3,11.5,81,0.00,CLR,,0.00,WeatherDisplay:10.37,2013-01-24 11:14:00,
2013-01-24 05:19:00,-1.6,-6.3,30.53,NNW,328,3.1,5.8,80,0.00,CLR,,0.00,WeatherDisplay:10.37,2013-01-24 11:19:00,
2013-01-24 05:24:00,-1.7,-6.1,30.53,NNW,345,6.8,9.2,81,0.00,CLR,,0.00,WeatherDisplay:10.37,2013-01-24 11:24:00,
2013-01-24 05:29:00,-1.7,-6.1,30.53,NNW,329,4.9,8.1,81,0.00,CLR,,0.00,WeatherDisplay:10.37,2013-01-24 11:29:00,
2013-01-24 05:34:00,-1.6,-6.0,30.52,NNW,333,4.4,6.9,81,0.00,CLR,,0.00,WeatherDisplay:10.37,2013-01-24 11:34:00,
2013-01-24 05:39:00,-1.6,-6.0,30.52,NNW,333,1.9,4.0,81,0.00,CLR,,0.00,WeatherDisplay:10.37,2013-01-24 11:39:00,
2013-01-24 05:44:00,-1.6,-6.0,30.52,NNW,340,4.8,10.3,81,0.00,CLR,,0.00,WeatherDisplay:10.37,2013-01-24 11:44:00,
2013-01-24 05:49:00,-1.5,-5.9,30.53,NE,38,0.0,0.0,81,0.00,CLR,,0.00,WeatherDisplay:10.37,2013-01-24 11:49:00,
2013-01-24 05:54:00,-1.6,-6.0,30.54,NW,316,3.6,6.7,81,0.00,CLR,,0.00,WeatherDisplay:10.37,2013-01-24 11:54:00,
2013-01-24 05:59:00,-1.6,-6.0,30.53,North,9,2.2,4.6,81,0.00,CLR,,0.00,WeatherDisplay:10.37,2013-01-24 11:59:00,
2013-01-24 06:04:00,-1.5,-5.9,30.53,North,353,3.4,5.8,81,0.00,CLR,,0.00,WeatherDisplay:10.37,2013-01-24 12:04:00,
2013-01-24 06:09:00,-1.6,-6.0,30.53,North,357,2.1,5.8,81,0.00,CLR,,0.00,WeatherDisplay:10.37,2013-01-24 12:09:00,
2013-01-24 06:14:00,-1.9,-6.3,30.53,WNW,292,5.3,10.4,81,0.00,CLR,,0.00,WeatherDisplay:10.37,2013-01-24 12:14:00,
2013-01-24 06:19:00,-1.6,-6.0,30.53,North,360,3.1,6.9,81,0.00,CLR,,0.00,WeatherDisplay:10.37,2013-01-24 12:19:00,
2013-01-24 06:24:00,-1.7,-6.1,30.53,NNW,333,3.4,8.1,81,0.00,CLR,,0.00,WeatherDisplay:10.37,2013-01-24 12:24:00,
2013-01-24 06:29:00,-1.5,-5.9,30.54,North,353,3.8,8.1,81,0.00,CLR,,0.00,WeatherDisplay:10.37,2013-01-24 12:29:00,
2013-01-24 06:34:00,-1.6,-6.0,30.54,NW,305,4.0,6.9,81,0.00,CLR,,0.00,WeatherDisplay:10.37,2013-01-24 12:34:00,
2013-01-24 06:39:00,-1.5,-5.9,30.53,NNE,20,4.6,6.9,81,0.00,CLR,,0.00,WeatherDisplay:10.37,2013-01-24 12:39:00,
2013-01-24 06:44:00,-1.5,-5.9,30.53,NW,325,3.7,6.9,81,0.00,CLR,,0.00,WeatherDisplay:10.37,2013-01-24 12:44:00,
2013-01-24 06:49:00,-1.5,-5.9,30.53,NE,47,4.4,10.4,81,0.00,CLR,,0.00,WeatherDisplay:10.37,2013-01-24 12:49:00,
2013-01-24 06:54:00,-1.4,-5.8,30.54,North,10,3.9,6.9,81,0.00,CLR,,0.00,WeatherDisplay:10.37,2013-01-24 12:54:00,
2013-01-24 06:59:00,-1.4,-5.8,30.54,North,353,2.9,4.6,81,0.00,CLR,,0.00,WeatherDisplay:10.37,2013-01-24 12:59:00,
2013-01-24 07:04:00,-1.5,-5.9,30.55,NNW,339,1.0,4.6,81,0.00,CLR,,0.00,WeatherDisplay:10.37,2013-01-24 13:04:00,
2013-01-24 07:09:00,-1.3,-5.7,30.55,WNW,284,0.8,3.5,81,0.00,CLR,,0.00,WeatherDisplay:10.37,2013-01-24 13:09:00,
2013-01-24 07:14:00,-1.3,-6.0,30.55,NE,34,1.7,3.5,80,0.00,CLR,,0.00,WeatherDisplay:10.37,2013-01-24 13:14:00,
2013-01-24 07:19:00,-1.3,-6.0,30.55,NNW,346,3.1,4.6,80,0.00,CLR,,0.00,WeatherDisplay:10.37,2013-01-24 13:19:00,
2013-01-24 07:24:00,-1.3,-6.0,30.55,NNW,336,0.4,4.6,80,0.00,CLR,,0.00,WeatherDisplay:10.37,2013-01-24 13:24:00,
2013-01-24 07:29:00,-1.2,-5.9,30.56,North,360,1.6,4.6,80,0.00,CLR,,0.00,WeatherDisplay:10.37,2013-01-24 13:29:00,
2013-01-24 07:34:00,-1.1,-5.8,30.56,NNE,19,4.7,8.1,80,0.00,CLR,,0.00,WeatherDisplay:10.37,2013-01-24 13:34:00,
2013-01-24 07:39:00,-1.1,-5.8,30.56,NE,38,1.9,4.6,80,0.00,CLR,,0.00,WeatherDisplay:10.37,2013-01-24 13:39:00,
2013-01-24 07:44:00,-1.1,-5.8,30.56,NNE,14,2.0,4.6,80,0.00,CLR,,0.00,WeatherDisplay:10.37,2013-01-24 13:44:00,
2013-01-24 07:49:00,-1.1,-5.8,30.56,NNE,20,3.2,8.3,80,0.00,CLR,,0.00,WeatherDisplay:10.37,2013-01-24 13:49:00,
2013-01-24 07:54:00,-1.1,-6.0,30.56,North,6,3.6,5.8,79,0.00,CLR,,0.00,WeatherDisplay:10.37,2013-01-24 13:54:00,
2013-01-24 07:59:00,-1.0,-5.9,30.57,NE,51,3.1,6.9,79,0.00,CLR,,0.00,WeatherDisplay:10.37,2013-01-24 13:59:00,
2013-01-24 08:04:00,-0.7,-5.7,30.57,ENE,58,0.2,1.1,79,0.00,CLR,,0.00,WeatherDisplay:10.37,2013-01-24 14:04:00,
2013-01-24 08:09:00,-0.7,-5.7,30.58,NNW,336,0.0,0.0,79,0.00,CLR,,0.00,WeatherDisplay:10.37,2013-01-24 14:09:00,
2013-01-24 08:14:00,-0.3,-5.3,30.58,West,271,0.3,2.3,79,0.00,CLR,,0.00,WeatherDisplay:10.37,2013-01-24 14:14:00,
2013-01-24 08:19:00,-0.3,-5.3,30.58,West,280,1.6,4.6,79,0.00,CLR,,0.00,WeatherDisplay:10.37,2013-01-24 14:19:00,
2013-01-24 08:24:00,-0.1,-5.3,30.58,North,352,3.8,5.8,78,0.00,CLR,,0.00,WeatherDisplay:10.37,2013-01-24 14:24:00,
2013-01-24 08:29:00,-0.1,-5.3,30.58,SE,146,0.2,4.6,78,0.00,CLR,,0.00,WeatherDisplay:10.37,2013-01-24 14:29:00,
2013-01-24 08:34:00,0.2,-5.0,30.58,North,356,2.7,4.6,78,0.00,CLR,,0.00,WeatherDisplay:10.37,2013-01-24 14:34:00,
2013-01-24 08:39:00,0.2,-5.3,30.58,NE,51,2.4,9.2,77,0.00,CLR,,0.00,WeatherDisplay:10.37,2013-01-24 14:39:00,
2013-01-24 08:44:00,0.5,-5.3,30.58,North,359,1.6,9.2,76,0.00,CLR,,0.00,WeatherDisplay:10.37,2013-01-24 14:44:00,
2013-01-24 08:49:00,0.6,-5.5,30.58,NE,34,4.2,5.8,75,0.00,CLR,,0.00,WeatherDisplay:10.37,2013-01-24 14:49:00,
2013-01-24 08:54:00,0.9,-5.2,30.58,NNW,346,2.2,6.9,75,0.00,CLR,,0.00,WeatherDisplay:10.37,2013-01-24 14:54:00,
2013-01-24 08:59:00,0.9,-5.5,30.58,NE,36,1.2,5.3,74,0.00,CLR,,0.00,WeatherDisplay:10.37,2013-01-24 14:59:00,
2013-01-24 09:04:00,1.0,-5.6,30.58,ENE,61,6.0,6.9,73,0.00,CLR,,0.00,WeatherDisplay:10.37,2013-01-24 15:04:00,
2013-01-24 09:09:00,0.9,-5.7,30.58,NE,45,6.1,6.9,73,0.00,CLR,,0.00,WeatherDisplay:10.37,2013-01-24 15:09:00,
2013-01-24 09:14:00,1.2,-5.2,30.58,North,352,0.4,4.6,74,0.00,CLR,,0.00,WeatherDisplay:10.37,2013-01-24 15:14:00,
2013-01-24 09:19:00,1.2,-5.7,30.58,NE,50,8.6,9.2,72,0.00,CLR,,0.00,WeatherDisplay:10.37,2013-01-24 15:19:00,
2013-01-24 09:24:00,1.2,-5.7,30.58,ENE,57,4.3,9.2,72,0.00,CLR,,0.00,WeatherDisplay:10.37,2013-01-24 15:24:00,
2013-01-24 09:29:00,1.5,-5.2,30.58,SE,130,5.0,6.9,73,0.00,CLR,,0.00,WeatherDisplay:10.37,2013-01-24 15:29:00,
2013-01-24 09:34:00,1.5,-5.4,30.58,NNE,30,10.1,12.9,72,0.00,CLR,,0.00,WeatherDisplay:10.37,2013-01-24 15:34:00,
2013-01-24 09:39:00,1.6,-5.1,30.58,ENE,72,6.5,9.2,73,0.00,CLR,,0.00,WeatherDisplay:10.37,2013-01-24 15:39:00,
2013-01-24 09:44:00,1.8,-5.2,30.57,NNE,27,8.6,11.5,72,0.00,CLR,,0.00,WeatherDisplay:10.37,2013-01-24 15:44:00,
2013-01-24 09:49:00,1.8,-5.2,30.57,NE,40,7.0,10.4,72,0.00,CLR,,0.00,WeatherDisplay:10.37,2013-01-24 15:49:00,
2013-01-24 09:54:00,1.8,-5.7,30.58,NNE,31,11.0,13.8,70,0.00,CLR,,0.00,WeatherDisplay:10.37,2013-01-24 15:54:00,
2013-01-24 10:01:00,2.3,-4.7,30.58,NE,55,4.7,6.9,72,0.00,CLR,,0.00,WeatherDisplay:10.37,2013-01-24 16:01:00,
2013-01-24 10:06:00,2.4,-4.9,30.58,ENE,65,6.9,9.3,71,0.00,CLR,,0.00,WeatherDisplay:10.37,2013-01-24 16:06:00,
2013-01-24 10:11:00,2.1,-4.9,30.58,ENE,72,5.7,6.9,72,0.00,CLR,,0.00,WeatherDisplay:10.37,2013-01-24 16:11:00,
2013-01-24 10:16:00,2.6,-4.1,30.58,NE,50,0.0,0.0,73,0.00,CLR,,0.00,WeatherDisplay:10.37,2013-01-24 16:16:00,
2013-01-24 10:21:00,2.4,-4.6,30.58,NE,43,4.5,8.1,72,0.00,CLR,,0.00,WeatherDisplay:10.37,2013-01-24 16:21:00,
2013-01-24 10:26:00,2.8,-3.9,30.58,NE,45,3.6,6.9,73,0.00,CLR,,0.00,WeatherDisplay:10.37,2013-01-24 16:26:00,
2013-01-24 10:31:00,2.6,-4.1,30.58,NNE,21,4.3,9.2,73,0.00,CLR,,0.00,WeatherDisplay:10.37,2013-01-24 16:31:00,
2013-01-24 10:36:00,2.8,-3.9,30.58,NNE,30,5.0,8.1,73,0.00,CLR,,0.00,WeatherDisplay:10.37,2013-01-24 16:36:00,
2013-01-24 10:41:00,3.1,-3.3,30.58,NE,44,2.2,6.9,74,0.00,CLR,,0.00,WeatherDisplay:10.37,2013-01-24 16:41:00,
2013-01-24 10:46:00,3.5,-2.9,30.58,NE,52,3.7,6.9,74,0.00,CLR,,0.00,WeatherDisplay:10.37,2013-01-24 16:46:00,
2013-01-24 10:51:00,3.7,-3.0,30.58,NE,51,4.4,6.9,73,0.00,CLR,,0.00,WeatherDisplay:10.37,2013-01-24 16:51:00,
2013-01-24 10:56:00,3.6,-2.8,30.57,NE,54,4.5,6.9,74,0.00,CLR,,0.00,WeatherDisplay:10.37,2013-01-24 16:56:00,
2013-01-24 11:01:00,4.1,-2.4,30.58,NE,48,4.5,5.8,74,0.00,CLR,,0.00,WeatherDisplay:10.37,2013-01-24 17:01:00,
2013-01-24 11:06:00,3.6,-3.4,30.57,NE,45,5.6,8.1,72,0.00,CLR,,0.00,WeatherDisplay:10.37,2013-01-24 17:06:00,
2013-01-24 11:11:00,4.0,-2.4,30.57,NE,45,0.0,2.3,74,0.00,CLR,,0.00,WeatherDisplay:10.37,2013-01-24 17:11:00,
2013-01-24 11:16:00,4.4,-2.1,30.57,NE,36,2.2,4.6,74,0.00,CLR,,0.00,WeatherDisplay:10.37,2013-01-24 17:16:00,
2013-01-24 11:21:00,4.9,-1.6,30.56,NE,36,4.5,6.7,74,0.00,CLR,,0.00,WeatherDisplay:10.37,2013-01-24 17:21:00,
2013-01-24 11:26:00,5.1,-1.7,30.56,East,89,4.7,9.2,73,0.00,CLR,,0.00,WeatherDisplay:10.37,2013-01-24 17:26:00,
2013-01-24 11:31:00,4.8,-2.0,30.56,NE,40,3.2,5.5,73,0.00,CLR,,0.00,WeatherDisplay:10.37,2013-01-24 17:31:00,
2013-01-24 11:36:00,5.5,-1.3,30.56,ENE,65,3.5,4.6,73,0.00,CLR,,0.00,WeatherDisplay:10.37,2013-01-24 17:36:00,
2013-01-24 11:41:00,5.5,-1.9,30.56,NE,50,4.7,6.9,71,0.00,CLR,,0.00,WeatherDisplay:10.37,2013-01-24 17:41:00,
2013-01-24 11:46:00,5.5,-1.3,30.56,NE,43,0.8,3.5,73,0.00,CLR,,0.00,WeatherDisplay:10.37,2013-01-24 17:46:00,
2013-01-24 11:51:00,5.4,-1.7,30.56,SE,126,3.4,8.1,72,0.00,CLR,,0.00,WeatherDisplay:10.37,2013-01-24 17:51:00,
2013-01-24 11:56:00,5.2,-1.9,30.55,ENE,57,3.3,6.9,72,0.00,CLR,,0.00,WeatherDisplay:10.37,2013-01-24 17:56:00,
2013-01-24 12:01:00,5.6,-1.2,30.55,ENE,67,1.0,2.3,73,0.00,CLR,,0.00,WeatherDisplay:10.37,2013-01-24 18:01:00,
2013-01-24 12:06:00,5.8,-1.0,30.54,East,89,2.5,5.8,73,0.00,CLR,,0.00,WeatherDisplay:10.37,2013-01-24 18:06:00,
2013-01-24 12:11:00,6.2,-0.9,30.54,NE,41,0.2,1.1,72,0.00,CLR,,0.00,WeatherDisplay:10.37,2013-01-24 18:11:00,
2013-01-24 12:16:00,6.4,-0.7,30.54,East,81,0.0,0.0,72,0.00,CLR,,0.00,WeatherDisplay:10.37,2013-01-24 18:16:00,
2013-01-24 12:21:00,6.9,-0.5,30.54,ESE,113,0.4,3.6,71,0.00,CLR,,0.00,WeatherDisplay:10.37,2013-01-24 18:21:00,
2013-01-24 12:26:00,7.5,0.1,30.54,ESE,110,0.0,0.0,71,0.00,CLR,,0.00,WeatherDisplay:10.37,2013-01-24 18:26:00,
2013-01-24 12:31:00,7.7,-0.4,30.53,NNE,31,0.8,3.5,69,0.00,CLR,,0.00,WeatherDisplay:10.37,2013-01-24 18:31:00,
2013-01-24 12:36:00,7.3,-0.4,30.53,ENE,64,1.5,4.6,70,0.00,CLR,,0.00,WeatherDisplay:10.37,2013-01-24 18:36:00,
2013-01-24 12:41:00,6.7,-1.3,30.52,East,85,1.7,3.5,69,0.00,CLR,,0.00,WeatherDisplay:10.37,2013-01-24 18:41:00,
2013-01-24 12:46:00,7.3,-0.4,30.52,NE,43,0.0,0.0,70,0.00,CLR,,0.00,WeatherDisplay:10.37,2013-01-24 18:46:00,
2013-01-24 12:51:00,7.5,-0.6,30.52,ENE,58,1.2,4.6,69,0.00,CLR,,0.00,WeatherDisplay:10.37,2013-01-24 18:51:00,
2013-01-24 12:56:00,7.5,-0.6,30.52,NE,50,0.5,2.3,69,0.00,CLR,,0.00,WeatherDisplay:10.37,2013-01-24 18:56:00,
2013-01-24 13:01:00,7.9,0.1,30.52,NE,50,0.0,0.0,70,0.00,CLR,,0.00,WeatherDisplay:10.37,2013-01-24 19:01:00,
2013-01-24 13:06:00,8.4,0.3,30.52,NE,50,0.0,0.0,69,0.00,CLR,,0.00,WeatherDisplay:10.37,2013-01-24 19:06:00,
2013-01-24 13:11:00,8.7,0.6,30.51,NE,50,0.0,0.0,69,0.00,CLR,,0.00,WeatherDisplay:10.37,2013-01-24 19:11:00,
2013-01-24 13:16:00,9.4,1.3,30.51,NE,50,0.2,1.3,69,0.00,CLR,,0.00,WeatherDisplay:10.37,2013-01-24 19:16:00,
2013-01-24 13:21:00,9.5,0.4,30.51,NE,50,0.0,0.0,66,0.00,CLR,,0.00,WeatherDisplay:10.37,2013-01-24 19:21:00,
2013-01-24 13:26:00,9.6,0.5,30.50,NE,50,0.0,0.0,66,0.00,CLR,,0.00,WeatherDisplay:10.37,2013-01-24 19:26:00,
2013-01-24 13:31:00,9.7,0.0,30.50,NE,50,0.0,0.0,64,0.00,CLR,,0.00,WeatherDisplay:10.37,2013-01-24 19:31:00,
2013-01-24 13:36:00,10.2,1.1,30.50,NE,50,0.0,0.0,66,0.00,CLR,,0.00,WeatherDisplay:10.37,2013-01-24 19:36:00,
2013-01-24 13:41:00,10.1,1.0,30.50,NNE,27,0.3,2.3,66,0.00,CLR,,0.00,WeatherDisplay:10.37,2013-01-24 19:41:00,
2013-01-24 13:46:00,9.9,0.8,30.49,NE,47,0.0,0.0,66,0.00,CLR,,0.00,WeatherDisplay:10.37,2013-01-24 19:46:00,
2013-01-24 13:51:00,10.1,1.3,30.49,NE,47,0.0,0.0,67,0.00,CLR,,0.00,WeatherDisplay:10.37,2013-01-24 19:51:00,
2013-01-24 13:56:00,10.4,1.6,30.48,East,89,0.6,2.3,67,0.00,CLR,,0.00,WeatherDisplay:10.37,2013-01-24 19:56:00,
2013-01-24 14:01:00,10.7,1.9,30.49,South,172,0.0,0.0,67,0.00,CLR,,0.00,WeatherDisplay:10.37,2013-01-24 20:01:00,
2013-01-24 14:06:00,10.8,1.3,30.49,SE,134,0.0,0.0,65,0.00,CLR,,0.00,WeatherDisplay:10.37,2013-01-24 20:06:00,
2013-01-24 14:11:00,11.0,2.2,30.49,NE,43,0.4,2.3,67,0.00,CLR,,0.00,WeatherDisplay:10.37,2013-01-24 20:11:00,
2013-01-24 14:16:00,10.9,1.4,30.48,ESE,122,0.0,0.0,65,0.00,CLR,,0.00,WeatherDisplay:10.37,2013-01-24 20:16:00,
2013-01-24 14:21:00,10.9,1.8,30.49,NE,40,0.9,2.3,66,0.00,CLR,,0.00,WeatherDisplay:10.37,2013-01-24 20:21:00,
2013-01-24 14:26:00,10.9,1.8,30.49,ENE,62,0.0,0.0,66,0.00,CLR,,0.00,WeatherDisplay:10.37,2013-01-24 20:26:00,
2013-01-24 14:31:00,11.1,1.9,30.48,ENE,62,0.0,0.0,66,0.00,CLR,,0.00,WeatherDisplay:10.37,2013-01-24 20:31:00,
2013-01-24 14:36:00,11.4,2.2,30.48,ENE,62,0.0,0.0,66,0.00,CLR,,0.00,WeatherDisplay:10.37,2013-01-24 20:36:00,
2013-01-24 14:41:00,12.0,2.5,30.48,ENE,62,0.0,0.0,65,0.00,CLR,,0.00,WeatherDisplay:10.37,2013-01-24 20:41:00,
2013-01-24 14:46:00,11.7,1.5,30.48,ENE,62,0.0,0.0,63,0.00,CLR,,0.00,WeatherDisplay:10.37,2013-01-24 20:46:00,
2013-01-24 14:51:00,11.5,2.0,30.49,North,4,0.0,0.0,65,0.00,CLR,,0.00,WeatherDisplay:10.37,2013-01-24 20:51:00,
2013-01-24 14:56:00,11.6,2.4,30.48,North,4,0.0,0.0,66,0.00,CLR,,0.00,WeatherDisplay:10.37,2013-01-24 20:56:00,
2013-01-24 15:01:00,11.8,2.3,30.49,North,4,0.0,0.0,65,0.00,CLR,,0.00,WeatherDisplay:10.37,2013-01-24 21:01:00,
2013-01-24 15:06:00,11.7,1.9,30.48,North,4,0.0,0.0,64,0.00,CLR,,0.00,WeatherDisplay:10.37,2013-01-24 21:06:00,
2013-01-24 15:11:00,11.3,1.5,30.48,ENE,76,0.3,1.1,64,0.00,CLR,,0.00,WeatherDisplay:10.37,2013-01-24 21:11:00,
2013-01-24 15:16:00,11.3,2.1,30.48,ENE,76,0.0,0.0,66,0.00,CLR,,0.00,WeatherDisplay:10.37,2013-01-24 21:16:00,
2013-01-24 15:21:00,11.3,1.8,30.47,ENE,76,0.0,0.0,65,0.00,CLR,,0.00,WeatherDisplay:10.37,2013-01-24 21:21:00,
2013-01-24 15:26:00,11.0,1.5,30.46,ENE,76,0.0,0.0,65,0.00,CLR,,0.00,WeatherDisplay:10.37,2013-01-24 21:26:00,
2013-01-24 15:31:00,11.3,2.1,30.46,ENE,76,0.0,0.0,66,0.00,CLR,,0.00,WeatherDisplay:10.37,2013-01-24 21:31:00,
2013-01-24 15:36:00,11.3,2.1,30.46,East,82,0.0,0.0,66,0.00,CLR,,0.00,WeatherDisplay:10.37,2013-01-24 21:36:00,
2013-01-24 15:41:00,11.2,2.0,30.46,East,81,1.2,3.5,66,0.00,CLR,,0.00,WeatherDisplay:10.37,2013-01-24 21:41:00,
2013-01-24 15:46:00,11.1,2.3,30.45,East,82,0.0,0.0,67,0.00,CLR,,0.00,WeatherDisplay:10.37,2013-01-24 21:46:00,
2013-01-24 15:51:00,10.9,2.1,30.46,ENE,65,0.5,3.5,67,0.00,CLR,,0.00,WeatherDisplay:10.37,2013-01-24 21:51:00,
2013-01-24 15:56:00,11.2,2.7,30.45,NE,40,0.0,0.0,68,0.00,CLR,,0.00,WeatherDisplay:10.37,2013-01-24 21:56:00,
2013-01-24 16:01:00,11.1,2.6,30.45,NE,40,0.0,0.0,68,0.00,CLR,,0.00,WeatherDisplay:10.37,2013-01-24 22:01:00,
2013-01-24 16:06:00,11.2,2.7,30.44,NNE,27,1.6,5.8,68,0.00,CLR,,0.00,WeatherDisplay:10.37,2013-01-24 22:06:00,
2013-01-24 16:11:00,11.2,2.7,30.45,NE,44,1.2,3.5,68,0.00,CLR,,0.00,WeatherDisplay:10.37,2013-01-24 22:11:00,
2013-01-24 16:16:00,11.1,2.6,30.45,ENE,75,0.0,0.0,68,0.00,CLR,,0.00,WeatherDisplay:10.37,2013-01-24 22:16:00,
2013-01-24 16:21:00,11.2,3.0,30.45,NE,54,0.8,3.5,69,0.00,CLR,,0.00,WeatherDisplay:10.37,2013-01-24 22:21:00,
2013-01-24 16:26:00,10.7,2.2,30.45,ENE,67,2.6,4.6,68,0.00,CLR,,0.00,WeatherDisplay:10.37,2013-01-24 22:26:00,
2013-01-24 16:31:00,10.9,2.7,30.45,ENE,74,1.1,3.5,69,0.00,CLR,,0.00,WeatherDisplay:10.37,2013-01-24 22:31:00,
2013-01-24 16:36:00,11.0,3.1,30.44,NNE,33,0.9,3.5,70,0.00,CLR,,0.00,WeatherDisplay:10.37,2013-01-24 22:36:00,
2013-01-24 16:41:00,11.1,3.2,30.45,ENE,75,0.8,4.0,70,0.00,CLR,,0.00,WeatherDisplay:10.37,2013-01-24 22:41:00,
2013-01-24 16:46:00,11.0,3.1,30.44,ENE,67,0.0,0.0,70,0.00,CLR,,0.00,WeatherDisplay:10.37,2013-01-24 22:46:00,
2013-01-24 16:51:00,11.0,3.1,30.44,ENE,68,0.5,3.5,70,0.00,CLR,,0.00,WeatherDisplay:10.37,2013-01-24 22:51:00,
2013-01-24 16:56:00,11.0,3.4,30.44,ENE,68,1.0,2.3,71,0.00,CLR,,0.00,WeatherDisplay:10.37,2013-01-24 22:56:00,
2013-01-24 17:01:00,11.0,3.1,30.43,ENE,74,1.0,2.3,70,0.00,OVC,,0.00,WeatherDisplay:10.37,2013-01-24 23:01:00,
2013-01-24 17:06:00,10.9,2.7,30.43,East,81,2.7,7.3,69,0.00,OVC,,0.00,WeatherDisplay:10.37,2013-01-24 23:06:00,
2013-01-24 17:11:00,11.0,2.8,30.43,ENE,64,0.0,0.0,69,0.00,OVC,,0.00,WeatherDisplay:10.37,2013-01-24 23:11:00,
2013-01-24 17:16:00,11.1,2.9,30.43,East,91,2.1,3.5,69,0.00,OVC,,0.00,WeatherDisplay:10.37,2013-01-24 23:16:00,
2013-01-24 17:21:00,11.1,1.9,30.43,ESE,119,3.0,5.8,66,0.00,OVC,,0.00,WeatherDisplay:10.37,2013-01-24 23:21:00,
2013-01-24 17:26:00,11.1,1.9,30.42,East,89,1.9,3.5,66,0.00,OVC,,0.00,WeatherDisplay:10.37,2013-01-24 23:26:00,
2013-01-24 17:31:00,11.0,2.2,30.42,SSE,161,0.8,4.6,67,0.00,OVC,,0.00,WeatherDisplay:10.37,2013-01-24 23:31:00,
2013-01-24 17:36:00,11.2,2.4,30.42,ENE,78,1.5,3.5,67,0.00,OVC,,0.00,WeatherDisplay:10.37,2013-01-24 23:36:00,
2013-01-24 17:41:00,11.2,2.7,30.42,ESE,110,2.6,3.9,68,0.00,OVC,,0.00,WeatherDisplay:10.37,2013-01-24 23:41:00,
2013-01-24 17:46:00,11.0,2.2,30.41,ESE,102,4.4,6.9,67,0.00,OVC,,0.00,WeatherDisplay:10.37,2013-01-24 23:46:00,
2013-01-24 17:51:00,10.7,1.9,30.40,ESE,122,4.5,8.1,67,0.00,OVC,,0.00,WeatherDisplay:10.37,2013-01-24 23:51:00,
2013-01-24 17:56:00,10.8,2.0,30.40,ESE,112,5.1,9.2,67,0.00,OVC,,0.00,WeatherDisplay:10.37,2013-01-24 23:56:00,
2013-01-24 18:01:00,10.8,2.3,30.40,ESE,106,4.0,6.9,68,0.00,OVC,,0.00,WeatherDisplay:10.37,2013-01-25 00:01:00,
2013-01-24 18:06:00,10.7,2.2,30.39,East,95,4.7,6.9,68,0.00,OVC,,0.00,WeatherDisplay:10.37,2013-01-25 00:06:00,
2013-01-24 18:11:00,10.6,2.4,30.39,SE,127,4.5,6.9,69,0.00,OVC,,0.00,WeatherDisplay:10.37,2013-01-25 00:11:00,
2013-01-24 18:16:00,10.9,3.0,30.38,ENE,65,2.9,5.8,70,0.00,OVC,,0.00,WeatherDisplay:10.37,2013-01-25 00:16:00,
2013-01-24 18:21:00,10.9,3.3,30.38,SSE,148,3.7,6.9,71,0.00,OVC,,0.00,WeatherDisplay:10.37,2013-01-25 00:21:00,
2013-01-24 18:26:00,10.7,2.8,30.38,East,85,5.7,8.1,70,0.00,OVC,,0.00,WeatherDisplay:10.37,2013-01-25 00:26:00,
2013-01-24 18:31:00,10.8,2.9,30.38,SE,133,5.8,9.2,70,0.00,OVC,,0.00,WeatherDisplay:10.37,2013-01-25 00:31:00,
2013-01-24 18:36:00,10.6,2.7,30.39,ENE,71,4.3,8.1,70,0.00,OVC,,0.00,WeatherDisplay:10.37,2013-01-25 00:36:00,
2013-01-24 18:41:00,11.0,3.1,30.39,ESE,120,3.8,5.4,70,0.00,OVC,,0.00,WeatherDisplay:10.37,2013-01-25 00:41:00,
2013-01-24 18:46:00,11.0,3.1,30.38,East,86,3.6,5.8,70,0.00,OVC,,0.00,WeatherDisplay:10.37,2013-01-25 00:46:00,
2013-01-24 18:51:00,10.8,2.6,30.38,East,89,4.9,9.2,69,0.00,OVC,,0.00,WeatherDisplay:10.37,2013-01-25 00:51:00,
2013-01-24 18:56:00,11.0,3.1,30.38,ESE,123,4.9,9.2,70,0.00,OVC,,0.00,WeatherDisplay:10.37,2013-01-25 00:56:00,
2013-01-24 19:01:00,11.0,3.1,30.37,ESE,108,4.4,6.9,70,0.00,OVC,,0.00,WeatherDisplay:10.37,2013-01-25 01:01:00,
2013-01-24 19:06:00,11.0,3.1,30.37,East,99,5.2,8.1,70,0.00,OVC,,0.00,WeatherDisplay:10.37,2013-01-25 01:06:00,
2013-01-24 19:11:00,11.0,3.1,30.37,SE,126,3.6,5.8,70,0.00,OVC,,0.00,WeatherDisplay:10.37,2013-01-25 01:11:00,
2013-01-24 19:16:00,11.0,3.4,30.37,SE,139,2.3,4.6,71,0.00,OVC,,0.00,WeatherDisplay:10.37,2013-01-25 01:16:00,
2013-01-24 19:21:00,11.3,3.7,30.38,SE,127,4.1,8.1,71,0.00,OVC,,0.00,WeatherDisplay:10.37,2013-01-25 01:21:00,
2013-01-24 19:26:00,11.4,3.8,30.38,East,99,0.4,2.3,71,0.00,OVC,,0.00,WeatherDisplay:10.37,2013-01-25 01:26:00,
2013-01-24 19:31:00,11.4,4.1,30.38,ESE,106,2.0,3.5,72,0.00,OVC,,0.00,WeatherDisplay:10.37,2013-01-25 01:31:00,
2013-01-24 19:36:00,11.4,4.1,30.37,East,96,0.0,0.0,72,0.00,OVC,,0.00,WeatherDisplay:10.37,2013-01-25 01:36:00,
2013-01-24 19:41:00,11.7,4.4,30.37,South,185,4.1,5.8,72,0.00,OVC,,0.00,WeatherDisplay:10.37,2013-01-25 01:41:00,
2013-01-24 19:46:00,11.8,4.5,30.37,East,100,1.1,3.5,72,0.00,OVC,,0.00,WeatherDisplay:10.37,2013-01-25 01:46:00,
2013-01-24 19:51:00,11.8,4.5,30.37,ESE,106,1.1,3.5,72,0.00,OVC,,0.00,WeatherDisplay:10.37,2013-01-25 01:51:00,
2013-01-24 19:56:00,12.0,4.7,30.37,SE,140,0.0,1.1,72,0.00,OVC,,0.00,WeatherDisplay:10.37,2013-01-25 01:56:00,
2013-01-24 20:01:00,12.0,4.7,30.37,SE,130,2.2,4.6,72,0.00,OVC,,0.00,WeatherDisplay:10.37,2013-01-25 02:01:00,
2013-01-24 20:06:00,11.8,4.5,30.36,SE,129,1.5,2.3,72,0.00,OVC,,0.00,WeatherDisplay:10.37,2013-01-25 02:06:00,
2013-01-24 20:11:00,12.0,5.0,30.35,ESE,123,2.5,3.5,73,0.00,OVC,,0.00,WeatherDisplay:10.37,2013-01-25 02:11:00,
2013-01-24 20:16:00,12.1,5.1,30.35,East,96,1.5,3.5,73,0.00,OVC,,0.00,WeatherDisplay:10.37,2013-01-25 02:16:00,
2013-01-24 20:21:00,11.7,4.7,30.36,SE,139,2.1,3.5,73,0.00,OVC,,0.00,WeatherDisplay:10.37,2013-01-25 02:21:00,
2013-01-24 20:26:00,12.0,5.3,30.35,SE,132,0.7,3.5,74,0.00,OVC,,0.00,WeatherDisplay:10.37,2013-01-25 02:26:00,
2013-01-24 20:31:00,11.8,5.1,30.35,ESE,120,1.7,3.5,74,0.00,OVC,,0.00,WeatherDisplay:10.37,2013-01-25 02:31:00,
2013-01-24 20:36:00,12.2,5.5,30.36,SE,134,2.6,3.5,74,0.00,OVC,,0.00,WeatherDisplay:10.37,2013-01-25 02:36:00,
2013-01-24 20:41:00,12.2,5.8,30.35,East,100,1.8,3.5,75,0.00,OVC,,0.00,WeatherDisplay:10.37,2013-01-25 02:41:00,
2013-01-24 20:46:00,11.9,5.5,30.35,SE,132,1.7,3.5,75,0.00,OVC,,0.00,WeatherDisplay:10.37,2013-01-25 02:46:00,
2013-01-24 20:51:00,12.4,6.3,30.35,East,93,0.0,1.1,76,0.00,OVC,,0.00,WeatherDisplay:10.37,2013-01-25 02:51:00,
2013-01-24 20:56:00,12.6,6.5,30.35,SE,126,1.3,2.3,76,0.00,OVC,,0.00,WeatherDisplay:10.37,2013-01-25 02:56:00,
2013-01-24 21:01:00,12.4,6.3,30.34,ESE,112,2.0,3.5,76,0.00,BKN,,0.00,WeatherDisplay:10.37,2013-01-25 03:01:00,
2013-01-24 21:06:00,12.6,6.5,30.33,ESE,106,1.5,5.8,76,0.00,BKN,,0.00,WeatherDisplay:10.37,2013-01-25 03:06:00,
2013-01-24 21:11:00,12.6,6.5,30.33,ESE,103,4.0,6.3,76,0.00,BKN,,0.00,WeatherDisplay:10.37,2013-01-25 03:11:00,
2013-01-24 21:16:00,12.5,6.4,30.32,East,95,3.3,4.6,76,0.00,BKN,,0.00,WeatherDisplay:10.37,2013-01-25 03:16:00,
2013-01-24 21:25:00,12.5,6.7,30.30,ESE,117,2.0,6.0,77,0.00,BKN,BKN,0.00,WeatherDisplay:10.37,2013-01-25 03:25:00,
2013-01-24 21:30:00,12.7,6.9,30.30,ESE,123,5.0,9.0,77,0.00,BKN,BKN,0.00,WeatherDisplay:10.37,2013-01-25 03:30:00,
2013-01-24 21:35:00,12.9,7.0,30.30,ESE,120,3.0,6.0,77,0.00,BKN,BKN,0.00,WeatherDisplay:10.37,2013-01-25 03:35:00,
2013-01-24 21:40:00,13.0,7.1,30.30,SE,124,5.0,7.0,77,0.00,BKN,BKN,0.00,WeatherDisplay:10.37,2013-01-25 03:40:00,
2013-01-24 21:45:00,13.0,7.1,30.29,SE,127,3.0,10.0,77,0.00,BKN,BKN,0.00,WeatherDisplay:10.37,2013-01-25 03:45:00,
2013-01-24 21:50:00,13.1,7.5,30.29,SE,126,3.0,8.0,78,0.00,BKN,BKN,0.00,WeatherDisplay:10.37,2013-01-25 03:50:00,
2013-01-24 21:55:00,13.1,7.6,30.29,SE,129,5.0,9.0,78,0.00,BKN,BKN,0.00,WeatherDisplay:10.37,2013-01-25 03:55:00,
2013-01-24 22:00:00,13.2,7.6,30.28,SE,130,3.0,7.0,78,0.00,BKN,BKN,0.00,WeatherDisplay:10.37,2013-01-25 04:00:00,
2013-01-24 22:05:00,13.3,7.7,30.29,SE,127,2.0,9.0,78,0.00,BKN,BKN,0.00,WeatherDisplay:10.37,2013-01-25 04:05:00,
2013-01-24 22:10:00,13.3,8.0,30.29,ESE,122,5.0,10.0,79,0.00,BKN,BKN,0.00,WeatherDisplay:10.37,2013-01-25 04:10:00,
2013-01-24 22:15:00,13.4,8.1,30.29,ESE,122,5.0,8.0,79,0.00,BKN,BKN,0.00,WeatherDisplay:10.37,2013-01-25 04:15:00,
2013-01-24 22:20:00,13.4,8.1,30.28,SE,124,5.0,9.0,79,0.00,BKN,BKN,0.00,WeatherDisplay:10.37,2013-01-25 04:20:00,
2013-01-24 22:25:00,13.6,8.6,30.28,SE,126,3.0,8.0,80,0.00,BKN,BKN,0.00,WeatherDisplay:10.37,2013-01-25 04:25:00,
2013-01-24 22:30:00,13.7,8.6,30.29,SE,124,3.0,8.0,80,0.00,BKN,BKN,0.00,WeatherDisplay:10.37,2013-01-25 04:30:00,
2013-01-24 22:35:00,13.8,9.0,30.29,ESE,121,3.0,7.0,81,0.00,BKN,BKN,0.00,WeatherDisplay:10.37,2013-01-25 04:35:00,
2013-01-24 22:40:00,13.9,9.1,30.29,ESE,116,3.0,7.0,81,0.00,BKN,BKN,0.00,WeatherDisplay:10.37,2013-01-25 04:40:00,
2013-01-24 22:45:00,14.1,9.3,30.29,ESE,117,3.0,6.0,81,0.00,BKN,BKN,0.00,WeatherDisplay:10.37,2013-01-25 04:45:00,
2013-01-24 22:50:00,14.1,9.4,30.29,ESE,120,3.0,6.0,81,0.00,BKN,BKN,0.00,WeatherDisplay:10.37,2013-01-25 04:50:00,
2013-01-24 22:55:00,14.2,9.7,30.29,ESE,121,3.0,8.0,82,0.00,BKN,BKN,0.00,WeatherDisplay:10.37,2013-01-25 04:55:00,
2013-01-24 23:00:00,14.4,9.9,30.29,SE,124,2.0,8.0,82,0.00,BKN,BKN,0.00,WeatherDisplay:10.37,2013-01-25 05:00:00,
2013-01-24 23:02:00,14.5,10.0,30.30,ESE,115,2.5,5.8,82,0.00,BKN,,0.00,WeatherDisplay:10.37,2013-01-25 05:02:00,
2013-01-24 23:03:00,14.5,10.0,30.29,SSE,158,2.5,3.5,82,0.00,BKN,,0.00,WeatherDisplay:10.37,2013-01-25 05:03:00,
2013-01-24 23:08:00,14.6,10.1,30.30,NE,50,3.4,4.6,82,0.00,BKN,,0.00,WeatherDisplay:10.37,2013-01-25 05:08:00,
2013-01-24 23:13:00,14.6,10.1,30.30,SE,129,3.6,5.8,82,0.00,BKN,,0.00,WeatherDisplay:10.37,2013-01-25 05:13:00,
2013-01-24 23:18:00,14.8,10.6,30.30,East,85,2.8,8.8,83,0.00,BKN,,0.00,WeatherDisplay:10.37,2013-01-25 05:18:00,
2013-01-24 23:23:00,14.8,10.6,30.29,SE,129,4.1,4.6,83,0.00,BKN,,0.00,WeatherDisplay:10.37,2013-01-25 05:23:00,
2013-01-24 23:28:00,14.8,10.6,30.28,SE,127,2.3,5.8,83,0.00,BKN,,0.00,WeatherDisplay:10.37,2013-01-25 05:28:00,
2013-01-24 23:33:00,14.8,10.6,30.27,ESE,119,3.1,4.6,83,0.00,BKN,,0.00,WeatherDisplay:10.37,2013-01-25 05:33:00,
2013-01-24 23:38:00,14.9,10.7,30.27,SSE,157,4.3,6.9,83,0.00,BKN,,0.00,WeatherDisplay:10.37,2013-01-25 05:38:00,
2013-01-24 23:43:00,15.0,10.8,30.27,SSE,150,3.1,5.8,83,0.00,BKN,,0.00,WeatherDisplay:10.37,2013-01-25 05:43:00,
2013-01-24 23:48:00,15.2,11.2,30.26,ESE,109,3.1,5.8,84,0.00,BKN,,0.00,WeatherDisplay:10.37,2013-01-25 05:48:00,
2013-01-24 23:53:00,15.1,11.1,30.26,SE,141,5.2,5.7,84,0.00,BKN,,0.00,WeatherDisplay:10.37,2013-01-25 05:53:00,
2013-01-24 23:58:00,15.3,11.1,30.26,SSE,160,2.0,6.9,83,0.00,BKN,,0.00,WeatherDisplay:10.37,2013-01-25 05:58:00,